This is the latest recevied weather packets stored in our database for station/object W8AN. If no packets are shown the sender has not sent any weather packets the latest 10 day(s).
| Time | Temp. | Humidity | Pressure | Rain* | Wind** | Luminosity | Snow |
|---|---|---|---|---|---|---|---|
| 1777685616 | 6.67° C | 76% | 4270.7 hPa | 0 mm | - | 0 W/m² | - |
| 1777685312 | 6.67° C | 77% | 4270.3 hPa | 0 mm | - | 0 W/m² | - |
| 1777685011 | 6.67° C | 78% | 4270.2 hPa | 0 mm | - | 0 W/m² | - |
| 1777684707 | 6.67° C | 79% | 4270.3 hPa | 0 mm | - | 0 W/m² | - |
| 1777684403 | 6.67° C | 79% | 4270.3 hPa | 0 mm | - | 0 W/m² | - |
| 1777684101 | 6.67° C | 78% | 4270 hPa | 0 mm | - | 0 W/m² | - |
| 1777683797 | 6.67° C | 77% | 4270.1 hPa | 0 mm | - | 0 W/m² | - |
| 1777683494 | 6.67° C | 76% | 4270.1 hPa | 0 mm | - | 0 W/m² | - |
| 1777683192 | 7.22° C | 76% | 4270 hPa | 0 mm | - | 0 W/m² | - |
| 1777682889 | 7.22° C | 75% | 4270.3 hPa | 0 mm | - | 0 W/m² | - |
| 1777682585 | 7.22° C | 76% | 4270.2 hPa | 0 mm | - | 0 W/m² | - |
| 1777682283 | 7.22° C | 74% | 4270.3 hPa | 0 mm | - | 0 W/m² | - |
| 1777681980 | 7.22° C | 74% | 4270 hPa | 0 mm | - | 0 W/m² | - |
| 1777681675 | 7.22° C | 72% | 4269.9 hPa | 0 mm | - | 0 W/m² | - |
| 1777681373 | 7.22° C | 71% | 4269.9 hPa | 0 mm | - | 0 W/m² | - |
| 1777681070 | 7.22° C | 72% | 4270.1 hPa | 0 mm | - | 3 W/m² | - |
| 1777680768 | 7.78° C | 75% | 4269.9 hPa | 0 mm | - | 4 W/m² | - |
| 1777680466 | 7.22° C | 79% | 4269.8 hPa | 0 mm | - | 7 W/m² | - |
| 1777680164 | 7.22° C | 79% | 4269.6 hPa | 0 mm | - | 12 W/m² | - |
| 1777679858 | 6.67° C | 79% | 4269.5 hPa | 0 mm | - | 18 W/m² | - |
| 1777679555 | 6.67° C | 80% | 4269.4 hPa | 0 mm | - | 22 W/m² | - |
| 1777679251 | 6.67° C | 81% | 4269.5 hPa | 0 mm | - | 20 W/m² | - |
| 1777678948 | 6.67° C | 81% | 4269.7 hPa | 0 mm | - | 24 W/m² | - |
| 1777678646 | 6.67° C | 80% | 4269.5 hPa | 0 mm | - | 30 W/m² | - |
| 1777678344 | 6.67° C | 80% | 4269.6 hPa | 0 mm | - | 38 W/m² | - |
* Rain latest hour (hover to see other rain measurements)
** Current wind speed in m/s (hover to see current wind gust speed)